Location: Shenandoah County Park
(38.9356°N, 78.4524°W)
Time: 14:23:28
(UTC-05:00)

Transit 2A - Pass Details

Date: 16 October 2025
Orbit: 591 x 954 km, 66.7° (Epoch: 07 November)

Event Time Altitude Azimuth Distance (km) Brightness Sun altitude
Exits shadow 05:26:05 32° 318° (NW) 1,534 7.2 -23.8°
Maximum altitude 05:29:00 68° 245° (WSW) 1,011 6.3 -23.2°
Drops below altitude 10° 05:35:16 10° 164° (SSE) 2,671 8.9 -22.0°
Sets 05:37:49 0° 161° (SSE) 3,604 9.6 -21.5°
